IU1FIL-3 Weather Reports


Display with metric or nautical units.
time (UTC)temp
F
wind
direction
speed
MPH
gust
MPH
rain 1hr
in
rain 24hr
in
rain mn
in
humidity
%
barometer
mb
20260507171727 66 0.0 0.0 0.00 0.00 0.00 10 1014.7
20260507170725 61 0.0 0.0 0.00 0.00 0.00 10 1015.4
20260507165723 62 0.0 0.0 0.00 0.00 0.00 10 1015.2
20260507164721 62 0.0 0.0 0.00 0.00 0.00 10 1015.1
20260507163719 71 0.0 0.0 0.00 0.00 0.00 10 1014.2
20260507162717 66 0.0 0.0 0.00 0.00 0.00 10 1014.7
20260507161716 64 0.0 0.0 0.00 0.00 0.00 10 1014.8
20260507160714 63 0.0 0.0 0.00 0.00 0.00 10 1014.9
20260507155712 62 0.0 0.0 0.00 0.00 0.00 10 1014.9
20260507154710 63 0.0 0.0 0.00 0.00 0.00 10 1014.9
20260507153709 63 0.0 0.0 0.00 0.00 0.00 10 1014.7
20260507152707 64 0.0 0.0 0.00 0.00 0.00 10 1014.6
20260507151706 67 0.0 0.0 0.00 0.00 0.00 10 1014.1
20260507150703 66 0.0 0.0 0.00 0.00 0.00 10 1014.4
20260507145701 63 0.0 0.0 0.00 0.00 0.00 10 1014.8
20260507144659 64 0.0 0.0 0.00 0.00 0.00 10 1014.8
20260507143657 62 0.0 0.0 0.00 0.00 0.00 10 1014.9
20260507142655 63 0.0 0.0 0.00 0.00 0.00 10 1015.0
20260507141653 63 0.0 0.0 0.00 0.00 0.00 10 1015.0
20260507140650 65 0.0 0.0 0.00 0.00 0.00 10 1014.7
20260507135649 65 0.0 0.0 0.00 0.00 0.00 10 1014.7
20260507134647 64 0.0 0.0 0.00 0.00 0.00 10 1015.0
20260507133645 62 0.0 0.0 0.00 0.00 0.00 10 1015.4
20260507132643 60 0.0 0.0 0.00 0.00 0.00 10 1015.7
20260507131643 61 0.0 0.0 0.00 0.00 0.00 10 1015.6
20260507130639 62 0.0 0.0 0.00 0.00 0.00 10 1015.5
20260507125637 62 0.0 0.0 0.00 0.00 0.00 10 1015.4
20260507124634 62 0.0 0.0 0.00 0.00 0.00 10 1015.2
20260507123632 62 0.0 0.0 0.00 0.00 0.00 10 1015.3
20260507122630 63 0.0 0.0 0.00 0.00 0.00 10 1015.0
20260507121628 63 0.0 0.0 0.00 0.00 0.00 10 1015.0
20260507120626 63 0.0 0.0 0.00 0.00 0.00 10 1015.0
20260507115624 62 0.0 0.0 0.00 0.00 0.00 10 1015.1
20260507114622 64 0.0 0.0 0.00 0.00 0.00 10 1014.9
20260507113621 64 0.0 0.0 0.00 0.00 0.00 10 1014.9
20260507112619 63 0.0 0.0 0.00 0.00 0.00 10 1015.0
20260507111616 65 0.0 0.0 0.00 0.00 0.00 10 1014.8
20260507110614 65 0.0 0.0 0.00 0.00 0.00 10 1014.8
20260507105613 65 0.0 0.0 0.00 0.00 0.00 10 1014.8
20260507104610 66 0.0 0.0 0.00 0.00 0.00 10 1014.8
20260507103608 64 0.0 0.0 0.00 0.00 0.00 10 1015.0
20260507102606 66 0.0 0.0 0.00 0.00 0.00 10 1014.9
20260507101604 65 0.0 0.0 0.00 0.00 0.00 10 1015.0
20260507100603 64 0.0 0.0 0.00 0.00 0.00 10 1015.1
20260507095602 65 0.0 0.0 0.00 0.00 0.00 10 1015.1
20260507094600 64 0.0 0.0 0.00 0.00 0.00 10 1015.0
20260507093558 64 0.0 0.0 0.00 0.00 0.00 10 1015.0
20260507092556 63 0.0 0.0 0.00 0.00 0.00 10 1015.0
20260507091554 64 0.0 0.0 0.00 0.00 0.00 10 1014.8
20260507090553 63 0.0 0.0 0.00 0.00 0.00 10 1014.9
20260507085551 62 0.0 0.0 0.00 0.00 0.00 10 1014.9
20260507084549 62 0.0 0.0 0.00 0.00 0.00 10 1014.8
20260507083547 62 0.0 0.0 0.00 0.00 0.00 10 1014.7
20260507082546 61 0.0 0.0 0.00 0.00 0.00 10 1014.7
20260507081543 62 0.0 0.0 0.00 0.00 0.00 10 1014.6
20260507080541 61 0.0 0.0 0.00 0.00 0.00 10 1014.7
20260507075539 60 0.0 0.0 0.00 0.00 0.00 10 1014.9
20260507074537 59 0.0 0.0 0.00 0.00 0.00 10 1015.0
20260507073535 57 0.0 0.0 0.00 0.00 0.00 10 1015.2
20260507072534 58 0.0 0.0 0.00 0.00 0.00 10 1015.2
20260507071532 57 0.0 0.0 0.00 0.00 0.00 10 1015.1
20260507070530 56 0.0 0.0 0.00 0.00 0.00 10 1015.2
20260507065528 55 0.0 0.0 0.00 0.00 0.00 10 1015.2
20260507064525 55 0.0 0.0 0.00 0.00 0.00 10 1015.1
20260507063523 54 0.0 0.0 0.00 0.00 0.00 10 1015.0
20260507062521 54 0.0 0.0 0.00 0.00 0.00 10 1015.0
20260507061519 54 0.0 0.0 0.00 0.00 0.00 10 1014.9
20260507060517 54 0.0 0.0 0.00 0.00 0.00 10 1014.9
20260507055517 53 0.0 0.0 0.00 0.00 0.00 10 1014.9
20260507054514 53 0.0 0.0 0.00 0.00 0.00 10 1014.8
20260507053512 53 0.0 0.0 0.00 0.00 0.00 10 1014.6
20260507052510 53 0.0 0.0 0.00 0.00 0.00 10 1014.6
20260507051508 53 0.0 0.0 0.00 0.00 0.00 10 1014.5
20260507050506 52 0.0 0.0 0.00 0.00 0.00 10 1014.3
20260507045505 52 0.0 0.0 0.00 0.00 0.00 10 1014.3
20260507044504 52 0.0 0.0 0.00 0.00 0.00 10 1014.3
20260507043501 52 0.0 0.0 0.00 0.00 0.00 10 1014.3
20260507042459 52 0.0 0.0 0.00 0.00 0.00 10 1014.1
20260507041457 52 0.0 0.0 0.00 0.00 0.00 10 1014.2
20260507040455 52 0.0 0.0 0.00 0.00 0.00 10 1014.2
20260507035454 52 0.0 0.0 0.00 0.00 0.00 10 1014.1
20260507034452 52 0.0 0.0 0.00 0.00 0.00 10 1013.9
20260507033451 52 0.0 0.0 0.00 0.00 0.00 10 1013.9
20260507032449 52 0.0 0.0 0.00 0.00 0.00 10 1013.8
20260507031448 52 0.0 0.0 0.00 0.00 0.00 10 1013.9
20260507030445 51 0.0 0.0 0.00 0.00 0.00 10 1013.8
20260507025443 52 0.0 0.0 0.00 0.00 0.00 10 1013.8
20260507024442 52 0.0 0.0 0.00 0.00 0.00 10 1013.7
20260507023440 52 0.0 0.0 0.00 0.00 0.00 10 1013.7
20260507022439 52 0.0 0.0 0.00 0.00 0.00 10 1013.6
20260507021437 52 0.0 0.0 0.00 0.00 0.00 10 1013.5
20260507020435 52 0.0 0.0 0.00 0.00 0.00 10 1013.5
20260507015434 52 0.0 0.0 0.00 0.00 0.00 10 1013.5
20260507014432 52 0.0 0.0 0.00 0.00 0.00 10 1013.4
20260507013430 52 0.0 0.0 0.00 0.00 0.00 10 1013.2
20260507012428 52 0.0 0.0 0.00 0.00 0.00 10 1013.2
20260507011427 52 0.0 0.0 0.00 0.00 0.00 10 1013.3
20260507010425 52 0.0 0.0 0.00 0.00 0.00 10 1013.3
20260507005423 52 0.0 0.0 0.00 0.00 0.00 10 1013.4
20260507004421 53 0.0 0.0 0.00 0.00 0.00 10 1013.3
20260507003420 53 0.0 0.0 0.00 0.00 0.00 10 1013.3
20260507002418 54 0.0 0.0 0.00 0.00 0.00 10 1013.2
20260507001416 54 0.0 0.0 0.00 0.00 0.00 10 1013.2
20260507000415 54 0.0 0.0 0.00 0.00 0.00 10 1013.1
20260506235412 54 0.0 0.0 0.00 0.00 0.00 10 1013.1
20260506234411 54 0.0 0.0 0.00 0.00 0.00 10 1013.0
20260506233409 55 0.0 0.0 0.00 0.00 0.00 10 1013.1
20260506232407 55 0.0 0.0 0.00 0.00 0.00 10 1013.3
20260506231405 54 0.0 0.0 0.00 0.00 0.00 10 1013.3
20260506230403 54 0.0 0.0 0.00 0.00 0.00 10 1013.4
20260506225401 54 0.0 0.0 0.00 0.00 0.00 10 1013.4
20260506224359 54 0.0 0.0 0.00 0.00 0.00 10 1013.3
20260506223357 54 0.0 0.0 0.00 0.00 0.00 10 1013.2
20260506222355 55 0.0 0.0 0.00 0.00 0.00 10 1013.2
20260506221353 55 0.0 0.0 0.00 0.00 0.00 10 1013.2
20260506220351 55 0.0 0.0 0.00 0.00 0.00 10 1013.1
20260506215804 55 0.0 0.0 0.00 0.00 0.00 10 1013.1
20260506214802 55 0.0 0.0 0.00 0.00 0.00 10 1013.1
20260506213800 56 0.0 0.0 0.00 0.00 0.00 10 1013.0
20260506212758 56 0.0 0.0 0.00 0.00 0.00 10 1013.0
20260506211756 57 0.0 0.0 0.00 0.00 0.00 10 1012.9
20260506210754 57 0.0 0.0 0.00 0.00 0.00 10 1012.8
20260506205752 57 0.0 0.0 0.00 0.00 0.00 10 1012.7
20260506204751 57 0.0 0.0 0.00 0.00 0.00 10 1012.6
20260506203749 57 0.0 0.0 0.00 0.00 0.00 10 1012.6
20260506202746 58 0.0 0.0 0.00 0.00 0.00 10 1012.5
20260506201745 58 0.0 0.0 0.00 0.00 0.00 10 1012.5
20260506200743 57 0.0 0.0 0.00 0.00 0.00 10 1012.3
20260506195742 57 0.0 0.0 0.00 0.00 0.00 10 1012.2
20260506194740 58 0.0 0.0 0.00 0.00 0.00 10 1012.0
20260506193737 58 0.0 0.0 0.00 0.00 0.00 10 1011.9
20260506192736 58 0.0 0.0 0.00 0.00 0.00 10 1011.7
20260506191733 59 0.0 0.0 0.00 0.00 0.00 10 1011.4
20260506190732 59 0.0 0.0 0.00 0.00 0.00 10 1011.2
20260506185731 60 0.0 0.0 0.00 0.00 0.00 10 1010.8
20260506184729 60 0.0 0.0 0.00 0.00 0.00 10 1010.6
20260506183727 61 0.0 0.0 0.00 0.00 0.00 10 1010.4
20260506182725 61 0.0 0.0 0.00 0.00 0.00 10 1010.4
20260506181724 62 0.0 0.0 0.00 0.00 0.00 10 1010.2
20260506180722 63 0.0 0.0 0.00 0.00 0.00 10 1010.0
20260506175720 70 0.0 0.0 0.00 0.00 0.00 10 1009.3
20260506174718 72 0.0 0.0 0.00 0.00 0.00 10 1009.1
20260506173716 73 0.0 0.0 0.00 0.00 0.00 10 1008.8
20260506172714 75 0.0 0.0 0.00 0.00 0.00 10 1008.6